RH
67 55 48 48 51 46 53 66 79 69 61 44 56 42 35 31 40 33 28 28 33 64 74 62 61 56 46 44 50 60 63 64 66 69 69 70 72 72 76 84 88 86 84 80
79 58 56 48 54 49 46 50 55 56 51 36 33 33 35 38 37 35 34 34 48 65 64 65 64 61 59 59 63 65 65 67 69 71 76 76 78 79 86 89 88 87 84 80
84 66 60 76 59 54 52 49 49 59 45 36 37 55 59 67 65 57 47 65 72 78 80 74 69 69 69 70 73 72 71 71 72 76 81 85 86 86 87 89 88 86 88 99
96 88 95 57 40 45 45 44 45 38 32 45 55 75 74 71 70 74 72 72 75 76 74 78 85 87 88 88 86 84 83 81 81 86 86 88 92 89 88 91 95 99 99 99
95 91 67 44 42 34 33 32 34 34 60 55 61 78 75 70 68 70 73 78 80 84 88 96 98 100 97 90 87 86 84 85 91 89 88 93 98 99 100 99 99 98 99 99
85 93 86 56 28 31 26 48 62 58 61 66 65 83 77 78 77 76 76 77 77 79 81 83 87 93 98 100 98 100 100 97 95 96 98 100 100 99 99 99 99 99 98 98
86 76 63 45 33 30 41 40 64 59 63 69 75 74 64 72 86 78 75 75 79 84 82 82 86 90 96 100 98 99 100 100 99 100 100 100 100 99 100 99 98 98 98 98
82 80 64 40 38 38 42 48 63 63 62 67 65 69 75 81 93 85 93 84 83 90 88 87 88 91 99 99 98 97 99 100 99 100 100 100 99 100 100 98 97 97 97 98
56 63 47 38 35 41 49 47 64 63 55 60 71 78 78 88 97 100 99 99 83 90 88 87 90 95 100 99 99 99 100 100 99 99 100 99 98 97 99 99 98 96 96 96
52 45 39 40 39 35 40 47 59 56 56 57 62 83 96 100 100 100 98 100 87 89 91 87 88 95 98 99 99 100 100 100 100 100 100 100 100 98 97 98 97 96 96 96
61 49 46 42 41 35 35 42 40 33 32 37 52 78 86 92 99 99 98 99 88 89 87 88 92 93 95 98 99 99 100 100 100 99 98 99 98 96 96 96 90 93 93 95
65 52 46 45 44 39 40 36 36 37 38 38 49 76 86 87 81 88 99 93 88 86 87 89 93 96 97 100 100 99 100 99 98 98 98 97 97 97 97 97 96 96 95 96
44 45 50 48 51 42 43 42 43 48 46 44 63 80 79 86 77 84 91 88 87 87 86 90 92 96 100 100 100 100 97 97 98 98 96 97 98 96 97 98 97 97 96 94
50 50 57 56 55 53 52 49 43 40 39 53 63 70 75 87 85 92 95 88 86 89 90 93 95 100 100 99 99 98 97 97 96 96 96 97 96 96 96 96 97 98 97 95
53 55 45 44 52 54 49 48 51 50 51 72 71 80 84 92 94 92 91 89 90 91 92 94 99 98 99 100 99 97 96 97 97 97 96 96 96 97 96 96 96 97 97 97
57 58 54 61 55 56 59 72 82 85 82 84 90 94 89 92 92 92 91 89 91 95 94 93 96 100 100 97 94 100 99 97 97 96 96 97 96 96 97 96 97 97 97 95
68 69 68 71 72 80 82 83 84 87 90 87 89 91 94 93 94 95 94 91 86 87 92 91 99 98 99 100 94 98 96 98 97 96 96 96 96 96 96 96 96 97 97 95
60 53 56 66 74 68 69 93 96 97 93 87 97 99 98 94 96 100 96 91 92 94 93 90 94 98 95 96 97 98 100 99 98 96 96 96 96 96 95 94 95 95 97 98
87 59 56 59 65 67 73 80 93 94 93 91 95 97 97 98 97 98 94 93 95 99 99 94 97 98 94 95 95 99 98 100 96 100 100 97 98 95 93 91 90 92 94 93
88 89 93 98 98 94 96 99 98 99 100 97 94 96 99 98 94 94 89 96 91 88 90 93 92 97 95 96 99 100 99 98 100 100 100 98 94 92 89 86 83 81 83 83
96 97 99 99 99 100 100 97 97 100 98 93 94 96 97 96 91 91 97 98 100 95 89 91 98 96 97 99 99 100 100 100 99 97 97 96 97 96 93 90 87 83 81 80
96 98 99 100 99 100 100 97 97 95 96 96 92 91 95 100 98 97 92 88 99 96 94 94 94 95 93 99 99 96 98 98 98 98 98 98 96 96 95 95 94 92 92 93
92 99 99 99 99 99 100 99 98 96 98 97 92 94 94 97 96 97 99 96 90 91 89 94 94 91 90 98 93 84 93 95 94 93 91 93 93 93 96 95 94 93 94 94
97 99 99 100 100 98 98 100 98 98 95 87 88 85 85 98 97 90 86 83 89 90 91 90 90 89 83 90 80 77 84 87 89 90 90 89 88 88 86 86 86 87 91 93
94 98 98 99 98 98 98 98 98 98 95 92 90 88 86 82 80 87 81 90 90 91 96 92 86 88 83 92 79 78 76 81 82 80 78 80 83 84 82 85 89 88 88 93
93 96 96 99 95 97 97 98 97 97 98 100 99 97 95 94 89 91 85 91 90 91 95 96 94 89 90 94 84 80 78 80 83 79 76 78 86 88 90 94 96 96 95 94
90 93 100 100 98 96 97 96 96 97 97 97 97 99 97 92 90 88 89 89 93 93 97 98 97 93 93 93 96 93 86 83 85 87 88 89 89 90 93 94 95 94 95 95
Wind_Speed
3 3 2 4 8 7 4 7 6 5 6 5 6 3 5 10 10 10 12 11 9 9 6 17 15 10 6 7 8 10 11 12 15 16 17 19 20 21 22 23 24 28 29 25
3 3 5 1 6 6 6 5 5 6 11 6 5 5 6 7 7 9 11 11 8 4 2 2 3 3 4 6 7 6 8 10 12 13 14 18 20 20 21 23 25 28 26 26
4 4 6 7 10 10 6 6 8 8 10 5 4 4 4 4 4 6 4 4 6 5 5 2 2 5 7 8 8 8 9 9 10 11 11 13 16 17 19 20 20 23 25 22
3 5 4 5 4 8 9 7 7 3 3 4 2 4 2 1 2 3 3 4 4 3 2 3 6 7 7 7 8 8 6 6 8 8 6 9 13 15 17 18 20 22 19 18
5 4 6 5 6 6 7 7 7 6 7 4 3 5 2 4 1 2 2 1 1 1 2 3 6 7 8 9 9 7 3 6 5 5 6 9 13 15 15 17 16 15 17 18
3 5 9 5 3 7 6 5 7 7 7 6 5 2 4 5 4 4 4 4 6 5 4 4 5 6 6 6 6 7 5 4 4 5 7 11 13 13 15 16 16 16 14 13
4 2 6 6 5 4 6 6 7 8 7 7 5 5 4 2 3 2 4 5 7 7 6 6 6 6 9 6 5 6 3 2 2 3 6 9 12 14 16 15 13 13 15 15
3 3 9 7 3 9 6 3 7 6 7 7 7 6 6 7 4 5 3 5 7 10 8 5 5 5 6 5 5 4 3 3 4 5 9 11 13 13 13 14 16 16 16 16
8 7 4 2 2 4 6 6 5 6 4 6 7 6 5 4 4 6 10 9 9 13 12 7 5 5 4 6 5 5 5 6 7 9 11 12 14 15 15 16 18 18 18 18
3 2 4 4 2 1 2 5 5 7 7 7 6 4 4 4 5 5 10 12 11 11 13 9 6 5 4 5 4 6 7 8 10 11 11 12 12 14 17 18 18 18 15 16
1 3 5 7 5 4 1 2 3 3 3 4 5 5 7 5 7 10 13 14 13 14 12 7 5 4 4 5 5 7 6 7 9 10 12 12 12 13 16 16 19 20 18 18
5 6 4 3 4 3 4 3 4 6 8 8 7 9 8 7 13 13 13 14 11 12 11 8 6 4 3 4 6 7 8 10 12 13 13 13 13 11 10 12 13 11 11 13
8 5 8 6 8 6 7 11 12 9 11 9 10 13 11 5 13 15 14 15 14 12 8 7 3 2 4 5 5 7 9 11 13 13 13 15 14 14 13 10 9 9 10 9
8 5 11 6 8 8 10 10 15 12 14 12 15 17 16 13 14 13 15 18 13 11 8 3 2 1 2 3 6 8 9 10 13 14 15 16 16 15 15 14 13 14 10 11
12 11 16 8 6 8 9 8 10 10 9 7 18 15 15 9 10 13 15 15 13 9 7 4 3 3 4 6 6 7 8 11 12 14 15 15 14 14 14 13 12 13 15 12
10 8 11 9 12 10 7 8 7 7 6 6 6 11 16 13 12 17 17 15 12 8 7 6 5 5 6 5 6 8 8 10 13 15 15 15 15 15 13 12 12 15 18 18
7 8 5 5 8 8 7 6 8 8 7 9 9 10 14 19 17 15 14 11 9 7 6 4 4 5 8 9 9 10 10 12 14 15 15 15 16 14 12 12 12 13 18 19
14 13 8 6 8 6 4 11 12 12 10 8 9 10 14 15 12 15 15 14 11 8 6 4 4 8 10 11 10 11 11 14 15 15 15 15 15 13 13 12 12 13 14 16
7 7 6 7 7 8 8 8 8 9 11 13 16 9 11 15 17 17 16 12 11 9 7 6 8 10 10 10 10 13 12 14 14 13 13 15 14 12 12 11 12 13 15 15
9 9 8 6 6 1 1 3 6 9 13 19 20 16 13 16 17 16 13 11 11 8 9 9 10 11 11 11 11 13 13 13 13 14 14 15 14 13 11 10 11 11 13 14
7 6 5 5 6 10 9 9 14 13 14 17 18 15 14 15 14 15 12 7 7 9 10 12 11 11 10 10 11 13 12 13 14 15 15 15 14 13 13 12 12 12 12 12
5 5 5 8 8 9 12 13 17 18 17 17 16 17 16 13 14 12 10 10 11 11 12 11 11 11 11 11 12 12 12 12 12 13 13 13 14 14 13 14 14 14 13 12
5 6 6 6 6 7 11 11 10 11 11 12 12 13 13 12 14 10 4 7 11 12 10 11 12 11 10 10 11 11 11 11 11 11 11 11 11 11 12 12 11 10 11 11
3 4 4 6 8 9 5 7 9 9 9 9 9 11 12 12 9 7 5 7 10 12 12 12 12 12 11 11 10 10 10 9 10 10 10 9 9 9 9 9 9 9 8 8
1 2 4 4 4 4 8 8 10 10 10 9 9 10 10 10 9 9 5 11 13 15 13 12 12 13 12 12 10 10 10 8 9 9 9 9 9 8 7 7 7 7 8 8
4 4 5 2 4 6 8 8 6 9 10 9 12 13 12 9 7 10 9 12 14 13 12 13 14 14 14 12 10 11 11 9 9 9 9 8 7 7 7 7 7 8 8 7
5 5 4 3 6 8 9 9 10 10 11 12 11 13 12 10 12 11 10 12 11 11 10 11 13 14 15 13 9 11 11 11 9 9 9 8 8 7 7 7 8 8 8 8
Wind_Direction
34 71 85 126 156 150 127 149 156 178 244 223 237 204 242 257 248 256 268 279 251 224 197 204 204 191 199 230 248 261 268 275 283 289 282 269 261 256 246 234 220 216 207 199
36 14 51 203 174 165 169 179 195 199 250 253 262 246 252 256 261 256 254 249 248 223 148 200 242 253 260 260 264 271 279 285 290 290 285 277 267 257 239 221 209 204 198 191
169 97 40 305 186 185 186 189 161 193 223 183 250 182 245 291 316 291 283 141 113 97 98 79 295 287 277 273 273 281 288 292 288 279 276 270 252 237 216 201 196 192 186 187
133 92 198 238 170 182 188 184 200 225 268 137 160 147 150 109 132 49 32 47 70 76 46 339 322 297 283 274 279 292 302 295 272 247 244 246 230 213 203 196 196 187 180 185
150 198 320 281 219 185 170 219 196 188 172 151 136 131 254 207 213 227 303 327 303 314 316 329 327 322 314 310 316 302 289 286 251 239 226 218 205 204 199 196 184 192 193 190
154 168 203 239 195 128 90 266 188 159 157 149 122 136 259 210 198 238 261 285 270 268 297 311 318 319 316 322 321 307 287 244 232 222 216 207 202 192 196 198 194 190 180 189
161 194 283 215 165 131 164 229 181 169 170 163 164 189 221 231 241 215 229 263 271 250 263 303 317 326 319 312 317 295 267 186 156 211 211 200 186 189 192 187 182 173 171 168
128 127 254 173 157 207 206 174 166 182 190 188 184 193 218 240 218 175 208 260 248 230 246 276 283 298 295 305 294 260 237 157 160 188 190 181 182 184 184 178 170 167 165 153
176 202 224 212 233 220 172 159 199 189 184 181 190 212 209 237 264 208 212 234 233 227 219 214 244 263 289 299 271 243 201 179 176 184 183 183 182 177 173 177 168 156 158 151
115 182 211 223 224 238 202 204 162 176 182 176 190 201 219 231 254 253 257 239 238 217 216 214 208 220 239 259 243 230 199 194 192 183 170 180 181 185 180 176 163 154 164 165
295 289 338 275 221 222 186 99 111 139 172 214 194 212 208 212 229 238 247 252 228 222 214 217 216 218 219 221 215 206 206 195 185 178 172 170 183 191 190 193 192 178 184 194
228 194 204 230 140 146 148 186 240 249 262 254 216 213 205 219 229 229 234 232 215 202 197 194 207 210 212 218 210 195 185 182 186 178 172 171 172 169 205 202 194 194 195 205
252 193 223 229 206 202 246 255 249 226 229 234 228 210 209 223 245 243 232 208 199 197 193 182 196 202 200 200 188 199 191 186 184 179 175 170 169 165 150 167 172 154 150 169
247 230 261 227 243 223 226 241 239 237 242 219 217 214 222 226 238 224 201 199 185 168 156 173 166 163 195 182 189 195 194 191 189 183 180 175 175 177 173 170 169 167 164 166
256 225 248 250 217 229 230 241 248 244 236 224 219 214 217 216 212 196 183 169 160 150 136 140 137 183 179 177 176 185 185 184 187 182 182 182 184 186 186 186 188 184 177 167
262 240 240 232 248 257 232 225 234 253 266 241 222 209 223 224 169 165 162 155 145 148 153 152 172 174 166 158 166 182 186 185 180 180 178 177 179 178 175 175 175 166 164 170
248 261 228 235 217 197 210 236 249 249 237 234 227 236 197 149 136 131 143 150 137 148 154 169 158 163 168 185 180 183 177 173 178 180 180 180 180 179 175 169 164 170 171 178
241 236 218 199 182 203 296 275 268 261 236 200 119 124 131 139 139 136 139 133 128 128 129 125 156 166 176 179 190 186 170 173 178 178 182 183 186 186 181 179 174 166 165 174
340 217 227 222 221 226 226 242 243 238 206 186 140 133 131 127 134 141 145 144 139 138 147 157 166 170 165 166 180 181 166 169 177 169 179 185 184 183 181 183 184 186 184 186
19 24 13 8 17 125 185 132 158 131 140 137 132 125 119 133 142 144 154 153 170 172 160 164 168 166 164 168 183 172 166 169 172 180 180 184 186 185 187 186 186 188 195 203
9 17 30 49 57 66 87 129 134 118 123 134 131 134 132 148 157 160 150 140 168 164 158 168 169 165 171 175 182 188 182 180 183 185 187 188 188 189 192 193 196 199 202 207
2 17 30 42 61 69 90 108 114 112 113 119 133 140 146 144 157 157 175 174 163 162 164 166 171 171 169 174 176 174 176 180 183 184 185 185 185 188 193 200 209 214 217 220
8 21 43 54 69 80 100 112 120 128 129 143 154 154 149 160 165 145 128 165 168 166 168 174 172 167 174 169 171 170 170 176 177 178 177 179 182 188 191 194 198 202 206 209
33 53 81 110 112 100 95 110 129 139 151 165 164 167 170 154 155 175 162 185 175 177 182 176 178 181 178 170 171 175 175 174 175 175 174 174 179 183 188 192 199 204 207 210
54 81 111 102 103 102 126 134 139 143 149 162 168 173 180 183 187 191 201 180 181 184 187 184 184 187 188 185 181 185 188 186 179 178 181 183 188 195 200 208 216 218 218 220
179 186 182 151 153 155 154 156 147 164 165 159 178 188 191 198 198 169 168 178 183 191 197 194 190 190 202 199 197 198 200 194 190 193 199 200 203 210 213 217 221 220 221 222
160 172 198 166 179 188 186 179 175 185 182 175 167 180 173 166 160 159 170 183 189 196 199 201 203 202 203 205 214 211 215 214 214 214 214 216 220 229 228 224 214 211 210 210